EXPRESS-AM7

Last updated on Thu Oct 30 2025 00:02:49 GMT+0000 (Coordinated Universal Time)

1 40505U 15012A 25302.55037814 .00000160 00000+0 00000+0 0 9993 2 40505 0.0170 267.8031 0003120 323.1756 45.3356 1.00273059 38693
UTC large
Height (km)
Speed (km/s)
/
Latitude / Longitude
Inclination (degrees)
Orbital Period (minutes)
Azimuth
Elevation
Range (km)
Doppler Factor

Next 0 passes for location: London (51.5072 / 0.1276)

Sorry there are no passes over London.